Location: Arroyo Grande
(40.2671°N, 4.2512°W)
Time: 18:33:53
(UTC+00:00)

COSMOS 2428 - Pass Details

Date: 03 February 2023
Orbit: 843 x 858 km, 70.9° (Epoch: 22 March)

Event Time Altitude Azimuth Distance (km) Brightness Sun altitude
Rises 20:07:19 0° 205° (SSW) 3,389 6.1 -28.8°
Reaches altitude 10° 20:09:45 10° 206° (SSW) 2,457 5.3 -29.3°
Enters shadow 20:14:32 64° 227° (SW) 932 2.9 -30.2°
